Location: Taukkyan
(23.1052°N, 94.0030°E)
Time: 23:09:00
(UTC+00:00)

Cosmos 1812 Rocket - Pass Details

Date: 06 July 2020
Orbit: 605 x 633 km, 82.5° (Epoch: 05 August)

Event Time Altitude Azimuth Distance (km) Brightness Sun altitude
Rises 14:10:48 0° 3° (N) 2,856 7.4 -20.0°
Reaches altitude 10° 14:13:06 10° 9° (N) 1,950 6.4 -20.4°
Enters shadow 14:17:03 45° 75° (ENE) 820 3.9 -21.1°
